Webster, NY (14580)

7:45 AM EDT on July 29, 2016 (GMT -0400)
Webster Fire Department - Sta. 1 | | Change Station
Active Advisory: Beach Hazard Statement

Elev 465 ft 43.21 °N, 77.43 °W | Updated 5 seconds ago

Mostly Cloudy
Mostly Cloudy
71.5 °F
Feels Like 71 °F
N
6.0
Wind Variable Wind from East
Gusts 10.0 mph

Today
High -- | Low -- °F
--% Chance of Precip.
Yesterday
High -- | Low -- °F
Precip. -- in
Pressure 29.93 in
Visibility 10.0 miles
Clouds Few 1400 ft
Scattered Clouds 7000 ft
Mostly Cloudy 10000 ft
Mostly Cloudy 20000 ft
Heat Index 71 °F
Dew Point 66 °F
Humidity 84%
Rainfall 0.00 in
Snow Depth Not available.
5:57 AM 8:34 PM
Waning Crescent, 22% visible
METAR KROC 291054Z 01004KT 10SM FEW014 SCT070 BKN100 BKN200 21/18 A2993 RMK AO2 SLP133 T02060183
Pressure 29.93 in
Visibility 10.0 miles
Clouds Few 1400 ft
Scattered Clouds 7000 ft
Mostly Cloudy 10000 ft
Mostly Cloudy 20000 ft
Heat Index 71 °F
Dew Point 66 °F
Humidity 84%
Rainfall 0.00 in
Snow Depth Not available.
5:57 AM 8:34 PM
Waning Crescent, 22% visible
METAR KROC 291054Z 01004KT 10SM FEW014 SCT070 BKN100 BKN200 21/18 A2993 RMK AO2 SLP133 T02060183

10-Day Weather Forecast

Almanac

Astronomy

Jul. 29, 2016 Rise Set
Actual Time
Civil Twilight
Nautical Twilight
Astronomical Twilight
Moon
Length of Visible Light
Length of Day
Tomorrow will be .
, % of the Moon is Illuminated

Today's Extremes

State Highs State Lows

Community

WunderPhotos

Upload Photos

1,928,325 photos uploaded!

WunderBlog® & News

Nearby

Air Quality

  Air Quality AQ Index Pollutant
Not available.

Snow Depth

Station Depth Elevation

Earthquake Activity

City Distance Mag. Time & Date
Minimum magnitude displayed is 2.5.

Coastal Water Temperatures

Place Temperature

Stations

Nearby Weather Stations

Station Location Temp. Windchill Dew Point Humidity Wind Precip. Elev Updated Type
                   

Watches & Warnings

Beach Hazard Statement
Issued: 6:54 AM EDT Jul. 29, 2016 – National Weather Service

... Beach hazards statement remains in effect until 2 PM EDT this
afternoon...

* locations... beaches of Niagara... Orleans... Monroe... and Wayne
counties.

* Timing... from early this morning through early this afternoon.

* Impacts... strong currents and dangerous swimming conditions.

Precautionary/preparedness actions...

A beach hazards statement is issued when there is a high swim
risk. This means life threatening waves and currents are
expected. Stay out of the water and stay away from dangerous
areas like piers and breakwalls.